[[{"header":{"parameterUnit":"m.s-1","parameterCategory":1,"la1":30.2991,"la2":30.254,"lo1":-89.0895,"lo2":-89.0444,"dy":0.0017,"dx":0.0017,"nx":28,"ny":28,"refTime":"2023-08-08T03:00:00:Z","depth":0,"parameterNumber":2,"parameterNumberName":"U-component_of_WINDS"},"data":[0,0,0,0,0,0,0,0,0,0,0,0,0,0,0,0,0,0,0,0,0,0,0,0,0,0,0,0,0,0,0,0,0,0,0,0,0,0,0,0,0,0,0,0,0,0,0,0,0,0,0,0,0,0,0,0,0,0,1.5173,1.5172,0,1.511,1.5109,1.5109,1.4973,1.497,1.4968,1.4965,1.4903,1.4904,1.4905,0,0,0,0,0,0,0,0,0,0,0,0,0,1.5177,1.5178,1.5173,1.5172,1.5172,1.511,1.5109,1.5109,1.4974,1.497,1.4967,1.4964,1.4903,1.4904,1.4905,0,0,0,0,0,0,0,0,0,0,0,0,0,1.5151,1.5178,1.5173,1.5097,1.5089,1.5111,1.5109,1.5108,1.4974,1.497,1.4966,1.4962,1.4903,1.4904,1.4905,1.4996,0,0,1.4909,1.491,0,0,0,0,0,0,0,0,1.5153,1.5151,1.5109,1.5102,1.5094,1.5045,1.5088,1.5071,1.4975,1.5018,1.4965,1.496,1.4954,1.4951,1.4948,1.4994,1.4991,1.491,1.491,1.4911,1.4911,0,0,0,0,0,0,0,1.5155,1.5153,1.5148,1.5108,1.5099,1.5066,1.5058,1.5084,1.501,1.5014,1.5004,1.4998,1.4949,1.4947,1.4946,1.499,1.491,1.4911,1.4912,1.4912,1.5104,1.5108,0,0,0,0,0,0,1.5168,1.5156,1.515,1.5146,1.5114,1.5069,1.506,1.5065,1.5009,1.4997,1.5002,1.4992,1.4947,1.4944,1.4943,1.5044,1.4911,1.4912,1.4913,1.51,1.5105,1.511,0,0,0,0,0,0,1.5168,1.5168,1.5153,1.5148,1.5144,1.5074,1.508,1.5066,1.5064,1.5,1.4986,1.5014,1.4944,1.4941,1.4983,1.504,1.4913,1.4914,1.5095,1.5102,1.5108,1.5249,0,0,0,0,0,0,1.5169,1.517,1.5203,1.515,1.5144,1.5194,1.5084,1.5068,1.5066,1.5053,1.5007,1.4996,1.494,1.4982,1.4985,1.504,1.4915,1.509,1.5098,1.5106,1.5239,1.5259,1.5277,0,0,0,0,0,1.517,1.5247,1.5206,1.5206,1.5185,1.5198,1.5195,1.5128,1.5072,1.5105,1.5064,1.4997,1.5034,1.4988,1.4989,1.5046,1.5086,1.5096,1.5105,1.523,1.5255,1.5276,0,0,0,0,0,0,1.531,1.5238,1.5192,1.5254,1.5233,1.5175,1.5215,1.5157,1.5152,1.514,1.5059,1.505,1.5103,1.5078,1.5028,1.513,1.5049,1.506,1.5143,1.5167,1.5185,1.5189,1.4916,0,0,0,0,0,1.5348,1.5363,1.53,1.5361,1.5353,1.5286,1.5289,1.524,1.5215,1.5205,1.5167,1.5146,1.5152,1.5158,1.5161,1.5235,1.5222,1.5274,1.5293,1.5309,1.5319,1.5354,1.5376,1.5142,1.5142,1.5141,0,0,1.5426,1.5389,1.5404,1.5388,1.5366,1.5384,1.5279,1.5304,1.5316,1.5209,1.5246,1.5218,1.5188,1.5247,1.527,1.5228,1.5381,1.5322,1.5335,1.5336,1.5366,1.5389,1.5408,1.5148,1.5147,1.5146,0,0,1.5578,1.5553,1.5599,1.5579,1.5546,1.5501,1.5512,1.5463,1.5439,1.5475,1.5394,1.5408,1.5422,1.5403,1.5396,1.554,1.5479,1.5544,1.5643,1.5678,1.5697,1.5712,1.5762,1.5781,1.5554,1.5554,1.5554,0,1.568,1.5704,1.5631,1.5659,1.5654,1.5557,1.5603,1.5587,1.5558,1.5556,1.5509,1.5522,1.5496,1.5548,1.5583,1.5581,1.559,1.5548,1.57,1.5715,1.5729,1.5775,1.5795,1.5562,1.5561,1.556,1.556,0,1.583,1.5848,1.5889,1.5861,1.5861,1.5898,1.5831,1.5839,1.579,1.575,1.5787,1.5752,1.5745,1.5753,1.5706,1.5798,1.5772,1.5714,1.5631,1.576,1.5803,1.582,1.5574,1.5571,1.5568,1.5566,0,0,1.6068,1.5998,1.6015,1.6,1.5956,1.5968,1.6002,1.5993,1.6001,1.5984,1.6009,1.6022,1.5967,1.5959,1.5909,1.594,1.6054,1.5877,1.5875,1.591,1.6151,1.6194,1.6216,1.6014,1.6017,1.6019,1.6153,0,1.6209,1.6259,1.6194,1.626,1.6274,1.6182,1.621,1.6187,1.6151,1.6158,1.6117,1.6127,1.6055,1.6049,1.6076,1.6035,1.6101,1.6024,1.6035,1.6037,1.6044,1.6238,1.6284,1.6412,1.6169,1.6172,1.6174,0,1.6379,1.6368,1.6435,1.6385,1.6389,1.6416,1.6402,1.641,1.6382,1.6353,1.6343,1.6283,1.6311,1.6232,1.6269,1.6218,1.6219,1.6199,1.6203,1.62,1.6112,1.624,1.6452,1.6471,1.62,1.6198,1.6196,0,1.6544,1.6546,1.6586,1.6576,1.652,1.6541,1.6518,1.6485,1.6484,1.6473,1.6471,1.6464,1.646,1.6456,1.6394,1.6342,1.6439,1.6355,1.6415,1.6417,1.6439,1.6438,1.6653,1.6443,1.6442,1.6442,1.6442,0,1.6706,1.675,1.6658,1.6683,1.6729,1.6654,1.6702,1.667,1.6641,1.6658,1.6579,1.6596,1.6515,1.6523,1.6476,1.6514,1.6513,1.649,1.6477,1.6496,1.6499,1.6494,1.6483,1.6447,1.6446,1.6445,1.6444,0,1.6897,1.6838,1.6874,1.6818,1.6805,1.6841,1.6792,1.6812,1.6771,1.6792,1.6793,1.6728,1.6734,1.6673,1.6667,1.6635,1.6694,1.6666,1.6704,1.6694,1.6757,1.6752,1.6976,1.7,1.6777,1.6779,1.6781,0,1.7004,1.7035,1.6982,1.6986,1.6968,1.6977,1.6975,1.6902,1.6903,1.6872,1.6896,1.6895,1.689,1.6904,1.6856,1.6851,1.6821,1.69,1.682,1.6838,1.682,1.6819,1.6821,1.6917,1.6919,1.6922,1.6923,0,1.72,1.7168,1.7168,1.7157,1.7156,1.7145,1.7128,1.7136,1.7057,1.7063,1.7067,1.7063,1.7057,1.7057,1.7042,1.7019,1.6959,1.6949,1.6962,1.6982,1.7002,1.699,1.6748,1.6944,1.6942,1.6941,1.6939,1.6939,1.735,1.7373,1.7338,1.734,1.7319,1.7305,1.7321,1.728,1.7282,1.727,1.7228,1.724,1.7209,1.7183,1.7166,1.7174,1.7135,1.7156,1.716,1.7166,1.7177,1.7002,1.7171,1.7171,1.717,1.717,1.7169,0,1.7539,1.7512,1.7515,1.7493,1.7494,1.7436,1.7414,1.742,1.743,1.7407,1.7403,1.7408,1.7407,1.7359,1.7352,1.7368,1.734,1.7369,1.7366,1.7361,1.7212,1.7201,1.7391,1.7391,1.7391,1.7391,1.7391,1.7391,1.7638,1.7673,1.7637,1.7661,1.7634,1.7643,1.7636,1.7622,1.7603,1.7611,1.7609,1.7578,1.7544,1.7534,1.7531,1.7517,1.7517,1.7556,1.7532,1.7394,1.7372,1.7351,1.734,1.7557,1.7557,1.768,1.7681,1.7682]},{"header":{"parameterUnit":"m.s-1","parameterCategory":1,"la1":30.2991,"la2":30.254,"lo1":-89.0895,"lo2":-89.0444,"dy":0.0017,"dx":0.0017,"nx":28,"ny":28,"refTime":"2023-08-08T03:00:00:Z","depth":0,"parameterNumber":3,"parameterNumberName":"V-component_of_WINDS"},"data":[0,0,0,0,0,0,0,0,0,0,0,0,0,0,0,0,0,0,0,0,0,0,0,0,0,0,0,0,0,0,0,0,0,0,0,0,0,0,0,0,0,0,0,0,0,0,0,0,0,0,0,0,0,0,0,0,0,0,5.0619,5.0618,0,5.0544,5.0543,5.0542,5.0419,5.0416,5.0414,5.0412,5.0336,5.0336,5.0336,0,0,0,0,0,0,0,0,0,0,0,0,0,5.0655,5.0655,5.0619,5.0618,5.0617,5.0544,5.0543,5.0542,5.0419,5.0416,5.0413,5.0411,5.0336,5.0336,5.0336,0,0,0,0,0,0,0,0,0,0,0,0,0,5.0616,5.0655,5.0619,5.0547,5.054,5.0545,5.0543,5.0542,5.042,5.0416,5.0413,5.0409,5.0336,5.0336,5.0336,5.0406,0,0,5.0337,5.0337,0,0,0,0,0,0,0,0,5.0618,5.0615,5.0558,5.0552,5.0544,5.0487,5.0528,5.0497,5.042,5.0465,5.0412,5.0408,5.0389,5.0385,5.0378,5.0403,5.0399,5.0337,5.0337,5.0337,5.0337,0,0,0,0,0,0,0,5.0621,5.0617,5.0589,5.0558,5.0549,5.0518,5.0509,5.0522,5.0447,5.0461,5.0452,5.0445,5.0384,5.0378,5.0376,5.0398,5.0337,5.0337,5.0337,5.0337,5.0473,5.0476,0,0,0,0,0,0,5.0634,5.062,5.0592,5.0587,5.0573,5.052,5.051,5.0509,5.0447,5.0434,5.0448,5.0439,5.038,5.0376,5.0373,5.0447,5.0337,5.0337,5.0337,5.047,5.0474,5.0478,0,0,0,0,0,0,5.0636,5.0633,5.0595,5.0601,5.0594,5.0523,5.0523,5.0509,5.0503,5.0437,5.0423,5.0455,5.0377,5.0372,5.0398,5.0443,5.0337,5.0338,5.0466,5.0471,5.0476,5.06,0,0,0,0,0,0,5.0637,5.0634,5.066,5.0603,5.0594,5.0622,5.0526,5.051,5.0503,5.0492,5.044,5.0428,5.0374,5.0398,5.0398,5.0442,5.0338,5.0461,5.0468,5.0474,5.0592,5.0609,5.0624,0,0,0,0,0,5.0639,5.0699,5.0662,5.0659,5.0625,5.0625,5.062,5.0556,5.0508,5.0533,5.049,5.043,5.0439,5.0402,5.0401,5.0445,5.0458,5.0466,5.0474,5.0585,5.0606,5.0624,0,0,0,0,0,0,5.0764,5.069,5.0648,5.0692,5.0666,5.0604,5.0634,5.0581,5.0568,5.0558,5.0479,5.0469,5.0504,5.0477,5.0438,5.0508,5.0439,5.0447,5.0524,5.0543,5.0559,5.0564,5.0338,0,0,0,0,0,5.0797,5.0803,5.0738,5.0782,5.0771,5.0705,5.0703,5.0656,5.0626,5.0614,5.0573,5.0546,5.0542,5.0542,5.0535,5.0588,5.0574,5.0618,5.0634,5.0647,5.0655,5.0678,5.0696,5.0504,5.0503,5.0503,0,0,5.0864,5.0825,5.0833,5.0806,5.078,5.0788,5.0697,5.0709,5.0713,5.0616,5.0636,5.0606,5.0571,5.061,5.0625,5.0589,5.0705,5.0657,5.0669,5.0668,5.0688,5.0706,5.0722,5.0509,5.0508,5.0507,0,0,5.099,5.0962,5.0994,5.097,5.0932,5.0887,5.0896,5.0842,5.0817,5.0837,5.0763,5.0768,5.0764,5.0741,5.0729,5.0846,5.0789,5.0846,5.0929,5.0953,5.0968,5.0981,5.102,5.1035,5.0854,5.0854,5.0854,0,5.1078,5.1087,5.1018,5.1034,5.1024,5.0936,5.0967,5.0947,5.091,5.0904,5.0864,5.0856,5.0826,5.0857,5.0885,5.088,5.0885,5.085,5.0971,5.0984,5.0995,5.1031,5.1046,5.0861,5.086,5.0859,5.0859,0,5.1196,5.1203,5.1234,5.1198,5.1192,5.1216,5.115,5.1152,5.1106,5.1066,5.1086,5.1047,5.103,5.1034,5.099,5.1059,5.1037,5.0986,5.0914,5.1021,5.1054,5.1067,5.0871,5.0868,5.0866,5.0865,0,0,5.1397,5.1323,5.1335,5.1317,5.1268,5.1272,5.1292,5.1275,5.1277,5.1254,5.1267,5.1266,5.1217,5.1203,5.1156,5.1177,5.1268,5.1122,5.112,5.1148,5.1339,5.1376,5.1393,5.1231,5.1234,5.1236,5.1341,0,5.1511,5.154,5.1479,5.1522,5.1527,5.1443,5.146,5.1432,5.1395,5.1393,5.1352,5.1351,5.1289,5.1279,5.1297,5.1254,5.1305,5.1246,5.1241,5.1242,5.125,5.141,5.145,5.1551,5.1353,5.1355,5.1357,0,5.1647,5.163,5.1674,5.1621,5.1621,5.1637,5.1615,5.1615,5.1581,5.1552,5.1537,5.1481,5.1495,5.1428,5.1446,5.1407,5.1402,5.1381,5.1383,5.1378,5.1304,5.1408,5.1582,5.1596,5.1377,5.1375,5.1374,0,5.1786,5.1775,5.1798,5.1786,5.1726,5.1739,5.1714,5.1677,5.167,5.1651,5.1645,5.1629,5.162,5.1608,5.1548,5.1505,5.1572,5.1501,5.1547,5.1549,5.1563,5.1563,5.1737,5.1565,5.1565,5.1564,5.1564,0,5.1918,5.1948,5.186,5.1875,5.1905,5.1834,5.1866,5.1833,5.1801,5.1807,5.1734,5.1742,5.1663,5.1662,5.1615,5.1636,5.1633,5.1609,5.1596,5.1614,5.1617,5.1608,5.1598,5.1568,5.1567,5.1567,5.1566,0,5.2077,5.202,5.204,5.1982,5.1968,5.1992,5.1941,5.1952,5.1911,5.1919,5.1917,5.1852,5.1846,5.1786,5.1767,5.1736,5.1773,5.1748,5.1785,5.1775,5.1824,5.182,5.1997,5.2015,5.1834,5.1836,5.1838,0,5.2164,5.2184,5.2128,5.2127,5.2105,5.2105,5.2097,5.2028,5.2023,5.1985,5.2,5.1989,5.1975,5.197,5.192,5.1905,5.1877,5.194,5.1874,5.1891,5.1874,5.1873,5.1873,5.1953,5.1956,5.1958,5.1959,0,5.2323,5.2293,5.2285,5.2266,5.2259,5.2241,5.2219,5.2222,5.2146,5.2144,5.2137,5.2127,5.2107,5.2096,5.2071,5.2045,5.1989,5.1981,5.199,5.2008,5.2027,5.2014,5.182,5.1976,5.1975,5.1973,5.1972,5.1972,5.2446,5.246,5.2422,5.2414,5.239,5.2371,5.2377,5.2337,5.233,5.2308,5.2268,5.2267,5.223,5.2192,5.217,5.2167,5.2134,5.2149,5.2152,5.2156,5.2165,5.203,5.2163,5.2163,5.2162,5.2162,5.2161,0,5.2599,5.257,5.2564,5.2535,5.2529,5.2478,5.245,5.2448,5.2448,5.2419,5.2407,5.2399,5.2387,5.2336,5.2319,5.2326,5.23,5.2324,5.2321,5.2315,5.2197,5.2189,5.2345,5.2345,5.2345,5.2345,5.2345,5.2345,5.2677,5.2697,5.2663,5.267,5.2641,5.2639,5.2627,5.2608,5.2585,5.2578,5.2568,5.2535,5.2497,5.2476,5.2463,5.2448,5.2444,5.2476,5.2452,5.2342,5.2324,5.2307,5.2299,5.2476,5.2476,5.2571,5.2571,5.2572]}]]